Weather History for Central Park, NY

Change the Weather History Date:

Wednesday, April 25, 2012

  Actual Average Record
Temperature  
Mean Temperature 53 °F 56 °F  
Max Temperature 62 °F 65 °F 91 °F (1915)
Min Temperature 43 °F 48 °F 29 °F (1919)
Degree Days  
Heating Degree Days 12 9  
Month to date heating degree days 251 328  
Since 1 July heating degree days 3555 4550  
Cooling Degree Days 0 1  
Month to date cooling degree days 20 4  
Year to date cooling degree days 24 5  
Growing Degree Days 2 (Base 50)    
Moisture  
Dew Point 32 °F    
Average Humidity 50    
Maximum Humidity 70    
Minimum Humidity 29    
Precipitation  
Precipitation T in 0.14 in 1.68 in (1945)
Month to date precipitation 3.49 3.80  
Year to date precipitation 9.05 14.90  
Snow  
Snow 0.00 in 0.00 in 3.00 in (1875)
Month to date snowfall 0.0 0.6  
Since 1 July snowfall 7.4 25.8  
Snow Depth 0.00 in    
Sea Level Pressure  
Sea Level Pressure 29.80 in    
Wind  
Wind Speed 2 mph (SW)    
Max Wind Speed 12 mph    
Max Gust Speed 22 mph    
Visibility 10 miles    
Events      
T = Trace of Precipitation, MM = Missing Value Source: NWS Daily Summary

Daily Weather History Graph

Daily Weather History Graph

Search for Another Location

Airport:

Trip Planner

Search our weather history database for the weather conditions in past years. The results will help you decide how hot, cold, wet, or windy it might be!

Date:

Astronomy

Apr. 25, 2012 Rise Set
Actual Time 6:01 AM EDT 7:46 PM EDT
Civil Twilight 5:32 AM EDT 8:15 PM EDT
Nautical Twilight 4:57 AM EDT 8:51 PM EDT
Astronomical Twilight 4:19 AM EDT 9:29 PM EDT
Moon 8:43 AM EDT 11:51 PM EDT
Length of Visible Light 14h 43m
Length of Day
13h 44m
Waxing Crescent, 16% of the Moon is Illuminated
Apr 25
Waxing Crescent
Apr 29
First Quarter
May 5
Full
May 12
Last Quarter
May 20
New

Hourly Weather History & Observations

Time (EDT) Temp. Dew Point Humidity Pressure Visibility Wind Dir Wind Speed Gust Speed Precip Events Conditions
12:51 AM 48.0 °F 32.0 °F 54% 29.73 in 10.0 mi Variable 3.5 mph - N/A   Mostly Cloudy
1:51 AM 48.0 °F 30.9 °F 52% 29.74 in 10.0 mi West 6.9 mph - N/A   Clear
2:51 AM 46.9 °F 30.9 °F 54% 29.74 in 10.0 mi Variable 3.5 mph - N/A   Overcast
3:51 AM 45.0 °F 32.0 °F 60% 29.75 in 10.0 mi Calm Calm - N/A   Clear
4:51 AM 44.1 °F 32.0 °F 63% 29.75 in 10.0 mi Calm Calm - N/A   Clear
5:51 AM 43.0 °F 33.1 °F 68% 29.76 in 10.0 mi Calm Calm - N/A   Clear
6:51 AM 46.0 °F 34.0 °F 63% 29.79 in 10.0 mi Calm Calm - N/A   Clear
7:51 AM 50.0 °F 34.0 °F 54% 29.80 in 10.0 mi Calm Calm - N/A   Clear
8:51 AM 51.1 °F 32.0 °F 48% 29.82 in 10.0 mi South 5.8 mph - N/A   Overcast
9:51 AM 54.0 °F 36.0 °F 51% 29.82 in 10.0 mi Calm Calm - N/A   Mostly Cloudy
10:51 AM 55.0 °F 28.9 °F 37% 29.83 in 10.0 mi North - - N/A   Mostly Cloudy
11:51 AM 60.1 °F 28.0 °F 30% 29.81 in 10.0 mi Variable 3.5 mph - N/A   Clear
12:51 PM 62.1 °F 30.0 °F 30% 29.79 in 10.0 mi Variable 4.6 mph - N/A   Scattered Clouds
1:51 PM 60.1 °F 36.0 °F 41% 29.78 in 10.0 mi Variable 4.6 mph - N/A   Mostly Cloudy
2:51 PM 57.0 °F 37.0 °F 47% 29.78 in 10.0 mi Variable 3.5 mph - N/A   Mostly Cloudy
3:51 PM 59.0 °F 41.0 °F 51% 29.77 in 10.0 mi Variable 3.5 mph - N/A   Mostly Cloudy
4:51 PM 59.0 °F 32.0 °F 36% 29.78 in 10.0 mi Calm Calm - 0.00 in   Mostly Cloudy
5:51 PM 59.0 °F 30.9 °F 35% 29.80 in 10.0 mi Calm Calm - N/A   Scattered Clouds
6:51 PM 57.9 °F 32.0 °F 37% 29.81 in 10.0 mi Variable 5.8 mph - N/A   Mostly Cloudy
7:51 PM 57.0 °F 30.9 °F 37% 29.84 in 10.0 mi Calm Calm - N/A   Clear
8:51 PM 54.0 °F 30.9 °F 41% 29.87 in 10.0 mi Variable 4.6 mph - N/A   Clear
9:51 PM 53.1 °F 30.0 °F 41% 29.89 in 10.0 mi Calm Calm - N/A   Clear
10:51 PM 53.1 °F 28.9 °F 40% 29.90 in 10.0 mi Calm Calm - N/A   Clear
11:51 PM 50.0 °F 32.0 °F 50% 29.91 in 10.0 mi Calm Calm - N/A   Clear